Greenville, AL

10:47 PM CST on November 19, 2017 (GMT -0600)
Greenville Municipal

Weather History for KPRN - October, 2011

Change the Weather History Date:

Monday, October 3, 2011

  Actual Average Record
Temperature  
Mean Temperature 61 °F -  
Max Temperature 79 °F 82 °F 94 °F (1986)
Min Temperature 43 °F 57 °F 41 °F (1974)
Degree Days  
Heating Degree Days 4    
Growing Degree Days 11 (Base 50)    
Moisture  
Dew Point 39 °F    
Average Humidity 52    
Maximum Humidity 82    
Minimum Humidity 15    
Precipitation  
Precipitation 0.00 in - - ()
Sea Level Pressure  
Sea Level Pressure 30.17 in    
Wind  
Wind Speed 5 mph (North)    
Max Wind Speed 9 mph    
Max Gust Speed 18 mph    
Visibility 10 miles    
Events      
Averages and records for this station are not official NWS values.
T = Trace of Precipitation, MM = Missing Value Source: NWS Daily Summary

Daily Weather History Graph

Daily Weather History Graph

Search for Another Location

Airport or City:

Trip Planner

Search our weather history database for the weather conditions in past years. The results will help you decide how hot, cold, wet, or windy it might be!

Date:

Astronomy

Oct. 03, 2011 Rise Set
Actual Time 6:41 AM CDT 6:29 PM CDT
Civil Twilight 6:17 AM CDT 6:53 PM CDT
Nautical Twilight 5:48 AM CDT 7:21 PM CDT
Astronomical Twilight 5:20 AM CDT 7:50 PM CDT
Moon 1:20 PM CDT (10/3) 11:49 PM CDT (10/3)
Length of Visible Light 12h 36m
Length of Day
11h 47m
Waxing Crescent, 45% of the Moon is Illuminated
Oct 3
Waxing Crescent
Oct 3
First Quarter
Oct 11
Full
Oct 19
Last Quarter
Oct 26
New

Hourly Weather History & Observations

Time (CDT) Temp. Windchill Dew Point Humidity Pressure Visibility Wind Dir Wind Speed Gust Speed Precip Events Conditions
12:56 AM 51.1 °F - 42.1 °F 71% 30.14 in 10.0 mi North 5.8 mph - N/A   Clear
1:56 AM 52.0 °F - 41.0 °F 66% 30.14 in 10.0 mi North 5.8 mph - N/A   Clear
2:56 AM 52.0 °F - 39.9 °F 63% 30.14 in 10.0 mi NNW 5.8 mph - N/A   Clear
3:56 AM 50.0 °F - 39.9 °F 68% 30.14 in 10.0 mi NNW 4.6 mph - N/A   Clear
4:56 AM 48.9 °F - 39.9 °F 71% 30.17 in 10.0 mi North 5.8 mph - N/A   Clear
5:56 AM 48.0 °F - 39.0 °F 71% 30.18 in 10.0 mi North 3.5 mph - N/A   Clear
6:56 AM 43.0 °F 40.3 °F 37.9 °F 82% 30.19 in 10.0 mi North 4.6 mph - N/A   Clear
7:56 AM 51.1 °F - 39.9 °F 66% 30.20 in 10.0 mi NNW 3.5 mph - N/A   Clear
8:56 AM 59.0 °F - 41.0 °F 51% 30.22 in 10.0 mi NE 5.8 mph - N/A   Clear
9:56 AM 64.0 °F - 37.9 °F 38% 30.23 in 10.0 mi NE 9.2 mph 18.4 mph N/A   Clear
10:56 AM 69.1 °F - 39.0 °F 33% 30.23 in 10.0 mi East 5.8 mph - N/A   Clear
11:56 AM 71.1 °F - 36.0 °F 28% 30.23 in 10.0 mi Variable 3.5 mph - N/A   Clear
1:56 PM 77.0 °F - 30.9 °F 19% 30.16 in 10.0 mi Variable 5.8 mph - N/A   Clear
2:56 PM 78.1 °F - 30.0 °F 17% 30.14 in 10.0 mi NNW 9.2 mph - N/A   Clear
3:56 PM 79.0 °F - 27.0 °F 15% 30.13 in 10.0 mi NNW 6.9 mph - N/A   Clear
4:56 PM 79.0 °F - 33.1 °F 19% 30.13 in 10.0 mi North 4.6 mph - N/A   Clear
5:56 PM 73.9 °F - 36.0 °F 25% 30.14 in 10.0 mi NNW 4.6 mph - N/A   Clear
6:56 PM 66.0 °F - 43.0 °F 43% 30.15 in 10.0 mi Calm Calm - N/A   Clear
7:56 PM 60.1 °F - 46.9 °F 62% 30.17 in 10.0 mi Calm Calm - N/A   Clear
8:56 PM 57.0 °F - 46.9 °F 69% 30.18 in 10.0 mi Calm Calm - N/A   Clear
9:56 PM 53.1 °F - 46.9 °F 80% 30.19 in 10.0 mi Calm Calm - N/A   Clear
10:56 PM 54.0 °F - 46.0 °F 75% 30.19 in 10.0 mi North 3.5 mph - N/A   Clear
11:56 PM 53.1 °F - 45.0 °F 74% 30.19 in 10.0 mi North 3.5 mph - N/A   Clear